{"data":{"norad_id":67612,"epoch":"2026-09-19T11:00:51.310080Z","epoch_age_seconds":159618,"freshness":"FRESH","line1":"1 67612U 26018Z   26262.45892720  .00015782  00000+0  49012-3 0  9995","line2":"2 67612  97.2889 325.9767 0000183 312.1552  47.9675 15.33447649 37089","mean_motion":15.33447649,"eccentricity":1.83e-5,"inclination_deg":97.2889,"raan_deg":325.9767,"arg_perigee_deg":312.1552,"mean_anomaly_deg":47.9675,"bstar":0.00049012,"rev_number":3708,"period_min":93.906042435753,"perigee_km":465.41005372625,"apogee_km":465.66053213217,"semimajor_km":6843.6722929292,"source":"CELESTRAK","updated_at":"2026-09-20T09:00:43.608658Z"}}